Flag for Germany Weather past 2 weeks in Idar-Oberstein, Rhineland-Palatinate, Germany

Now
63 °F

Broken clouds.


Feels Like: 63 °F
Forecast: 43 / 55 °F
Wind: 10 mph from Southwest

Location: Hahn

Current Time: Apr 26, 2015 at 3:34:46 PM

Latest Report: Apr 26, 2015 at 3:20 PM


Visibility: N/A

Pressure: 29.71 "Hg

Humidity: 59%

Dew point: 48 °F

Location of Idar-ObersteinLocation

Historic Weather in Idar-Oberstein — Graph

°F

Idar-Oberstein temperature yesterday

Maximum temperature yesterday: 57 °F (at 12:20 AM)
Minimum temperature yesterday: 50 °F (at 8:50 PM)
Average temperature yesterday: 54 °F

Past Weeks' High & Low Weather Summary

 TemperatureHumidityPressure
High72 °F (Apr 15, 3:20 PM)100% (Apr 11, 10:50 PM)30.45 "Hg (Apr 11, 10:50 PM)
Low32 °F (Apr 18, 5:50 AM)21% (Apr 24, 4:20 PM)29.74 "Hg (Apr 26, 1:50 PM)
Average52 °F61%30.15 "Hg
* Reported Apr 11 2:20 PM — Apr 26 2:20 PM, Idar-Oberstein, Weather by CustomWeather, © 2015

Note: Actual official high and low records may vary slightly from our data, if they occured in-between our weather recording intervals... More about our weather records

Advertising

Idar-Oberstein weather history for previous 24 hours

 ConditionsComfort  
Time TempWeatherWind HumidityBarometerVisibility
2:20 PM
Sun, Apr 26
59 °FBroken clouds.6 mph72%29.74 "HgN/A
1:50 PM59 °FScattered showers. Broken clouds.10 mph77%29.74 "HgN/A
1:20 PM55 °FBroken clouds.6 mph88%29.77 "HgN/A
12:50 PM54 °FRain showers. Broken clouds.5 mph94%29.77 "HgN/A
12:20 PM55 °FSprinkles. Broken clouds.7 mph88%29.77 "HgN/A
11:50 AM54 °FRain showers. Scattered clouds.6 mph94%29.77 "HgN/A
11:20 AM55 °FScattered showers. Scattered clouds.6 mph88%29.77 "HgN/A
10:50 AM54 °FSprinkles. Broken clouds.6 mph88%29.80 "HgN/A
10:20 AM54 °FScattered showers. Scattered clouds.6 mph88%29.80 "HgN/A
9:50 AM54 °FBroken clouds.9 mph82%29.77 "HgN/A
9:20 AM54 °FBroken clouds.8 mph88%29.77 "HgN/A
8:50 AM52 °FBroken clouds.7 mph94%29.80 "HgN/A
8:20 AM52 °FBroken clouds.10 mph94%29.80 "HgN/A
7:50 AM50 °FLight rain. Broken clouds.9 mph100%29.80 "HgN/A
7:20 AM50 °FLight rain. Broken clouds.8 mph100%29.80 "HgN/A
6:50 AM50 °FLight rain. Passing clouds.9 mph94%29.80 "HgN/A
6:20 AM50 °FPassing clouds.8 mph94%29.77 "HgN/A
5:50 AM50 °FPassing clouds.7 mph94%29.77 "HgN/A
5:20 AM50 °FPassing clouds.6 mph94%29.77 "HgN/A
4:50 AM50 °FPassing clouds.6 mph100%29.80 "HgN/A
4:20 AM50 °FPartly cloudy.8 mph94%29.80 "HgN/A
3:50 AM50 °FPartly cloudy.9 mph94%29.80 "HgN/A
3:20 AM50 °FPartly cloudy.8 mph94%29.80 "HgN/A
2:50 AM50 °FPassing clouds.7 mph100%29.80 "HgN/A
2:20 AM52 °FLight rain. Partly cloudy.9 mph94%29.80 "HgN/A
1:50 AM52 °FLight rain. Partly cloudy.10 mph94%29.80 "HgN/A
1:20 AM52 °FPassing clouds.9 mph88%29.83 "HgN/A
12:50 AM50 °FPassing clouds.12 mph94%29.83 "HgN/A
12:20 AM50 °FClear.10 mph94%29.83 "Hg10 mi
11:20 PM
Sat, Apr 25
50 °FClear.9 mph94%29.83 "Hg10 mi
10:50 PM50 °FClear.9 mph94%29.83 "Hg10 mi
10:20 PM52 °FClear.7 mph88%29.83 "Hg10 mi
9:50 PM50 °FClear.7 mph94%29.83 "Hg10 mi
9:20 PM50 °FSunny.7 mph94%29.83 "Hg10 mi
8:50 PM50 °FBroken clouds.6 mph94%29.80 "HgN/A
8:20 PM52 °FPartly sunny.6 mph94%29.80 "HgN/A
7:50 PM52 °FBroken clouds.6 mph94%29.80 "HgN/A
7:20 PM52 °FPartly sunny.6 mph94%29.80 "HgN/A
6:50 PM54 °FSprinkles. Broken clouds.6 mph88%29.80 "HgN/A
6:20 PM54 °FSprinkles. Broken clouds.7 mph88%29.80 "HgN/A
5:50 PM55 °FSprinkles. Broken clouds.9 mph77%29.80 "HgN/A
5:20 PM55 °FScattered showers. Broken clouds.12 mph77%29.80 "HgN/A
4:50 PM55 °FBroken clouds.12 mph77%29.80 "HgN/A
4:20 PM55 °FSprinkles. Broken clouds.10 mph77%29.80 "HgN/A
3:50 PM55 °FScattered showers. Partly sunny.13 mph77%29.80 "HgN/A
3:20 PM55 °FLight rain. Broken clouds.13 mph77%29.80 "HgN/A
Weather by CustomWeather, © 2015

See weather overviewHow to use our weather pages